This is the latest recevied weather packets stored in our database for station/object KI5GCD-13. If no packets are shown the sender has not sent any weather packets the latest 10 day(s).
| Time | Temp. | Humidity | Pressure | Rain* | Wind** | Luminosity | Snow |
|---|---|---|---|---|---|---|---|
| 1778059787 | 8.33° C | 91% | 1009.8 hPa | 0 mm | 0.45 m/s, 266° | - | - |
| 1778059487 | 8.33° C | 90% | 1009.8 hPa | 0 mm | 0.45 m/s, 174° | - | - |
| 1778059187 | 8.33° C | 90% | 1009.9 hPa | 0 mm | 0.89 m/s, 65° | - | - |
| 1778058888 | 8.33° C | 90% | 1009.7 hPa | 0 mm | 0 m/s | - | - |
| 1778058587 | 8.33° C | 90% | 1009.5 hPa | 0 mm | 0 m/s | - | - |
| 1778058287 | 8.33° C | 91% | 1009.6 hPa | 0 mm | 0 m/s | - | - |
| 1778057987 | 8.33° C | 91% | 1009.7 hPa | 0 mm | 0 m/s | - | - |
| 1778057687 | 8.33° C | 91% | 1009.4 hPa | 0 mm | 0.45 m/s, 251° | - | - |
| 1778057387 | 8.33° C | 92% | 1009.4 hPa | 0 mm | 0 m/s | - | - |
| 1778057087 | 8.33° C | 92% | 1009.5 hPa | 0 mm | 0.45 m/s, 232° | - | - |
| 1778056787 | 8.33° C | 92% | 1009.5 hPa | 0 mm | 0 m/s | - | - |
| 1778056487 | 8.33° C | 92% | 1009.6 hPa | 0 mm | 0.89 m/s, 77° | - | - |
| 1778056187 | 8.33° C | 92% | 1009.7 hPa | 0 mm | 0.45 m/s, 259° | - | - |
| 1778055887 | 8.33° C | 93% | 1009.7 hPa | 0 mm | 0.45 m/s, 242° | - | - |
| 1778055587 | 8.33° C | 93% | 1009.6 hPa | 0 mm | 0 m/s | - | - |
| 1778055287 | 8.33° C | 93% | 1009.6 hPa | 0 mm | 0 m/s | - | - |
| 1778054987 | 8.33° C | 92% | 1009.5 hPa | 0 mm | 0 m/s | - | - |
| 1778054687 | 8.33° C | 91% | 1009.4 hPa | 0 mm | 0.89 m/s, 191° | - | - |
| 1778054387 | 8.33° C | 91% | 1008.9 hPa | 0 mm | 0.45 m/s, 262° | - | - |
| 1778054087 | 8.33° C | 91% | 1008.8 hPa | 0 mm | 0.45 m/s, 286° | - | - |
| 1778053787 | 8.33° C | 92% | 1008.8 hPa | 0 mm | 0.89 m/s, 300° | - | - |
| 1778053487 | 8.33° C | 92% | 1008.7 hPa | 0 mm | 0.45 m/s, 325° | - | - |
| 1778053187 | 8.33° C | 92% | 1008.8 hPa | 0 mm | 0 m/s | - | - |
| 1778052887 | 8.33° C | 93% | 1008.8 hPa | 0 mm | 0 m/s | - | - |
| 1778052587 | 8.33° C | 93% | 1008.7 hPa | 0 mm | 0.45 m/s, 242° | - | - |
* Rain latest hour (hover to see other rain measurements)
** Current wind speed in m/s (hover to see current wind gust speed)